Content
SEND FEEDBACK

Daily
Averages
Monthly
Summary
Mexico

PUEBLA - JARDINES DE SAN MANUEL, PUEBLA


Home > North America > Mexico > Puebla
Elevation: 6962 feet     Latitude: 19 00N     Longitude: 098 11W

WEATHER
 
SELECT A DAY
Number of Records: 120,746;   Date Range: 1/1/95 - 7/9/14
 
SHARE

PRINT THIS DATA

[ ← Previous Day ]
WEATHER ALMANAC - DECEMBER 6, 2013
[ Next Day → ]
[ °C ]   °F
Weather ElementAverageHighLow
Temperature62.9 °F80 °F (2:40 pm)41 °F (5:50 am)
Dewpoint38.5 °F50 °F (6:43 pm)24.8 °F (1:48 pm)
Humidity43.6 %76 % (5:50 am)10 % (2:40 pm)
Barometer30.17 in30.37 in (9:45 am)29.69 in (5:40 pm)
Wind Speed4.7 mph10.4 mph (2:40 pm)
Weather ElementAverage
Visibility7 mi
Wind DirectionSSW (211.4 °)

Weather ElementTotal
Precipitation---
Heating Degree Days4.5 (Base 65)
Growing Degree Days10.5 (Base 50)
Averaged from 26 records on December 6, 2013
WEATHER CONDITIONS BREAKOUT
WIND DIRECTION BREAKOUT
WEATHER BY HOUR - DECEMBER 6, 2013
[ °C ]   °F
Local TimeTemperatureDewpointHumidityBarometerVisibilityWind DirectionWind SpeedGust SpeedPrecipitationEventsConditions
2:45 AM53.0 °F45.0 °F65 %29.80 in3.0 miCalm
5:45 AM48.0 °F39.0 °F62 %29.89 in6.0 miCalm
5:50 AM41.0 °F33.8 °F76 %30.31 in8.0 miNNW (330°)6.9 mphClear
6:44 AM42.8 °F33.8 °F70 %30.32 in10.0 miNNW (340°)9.2 mphClear
7:51 AM50.0 °F39.2 °F66 %30.34 in8.0 miNNW (340°)6.9 mphClear
8:47 AM57.2 °F37.4 °F48 %30.36 in8.0 miNorth (350°)6.9 mphClear
8:50 AM55.0 °F40.0 °F45 %30.00 in3.0 miCalmHaze
9:45 AM64.4 °F44.6 °F49 %30.37 in6.0 miNNW (340°)3.5 mphClear
10:46 AM71.6 °F42.8 °F35 %30.36 in6.0 miNorth (360°)5.8 mphClear
11:43 AM75.2 °F35.6 °F24 %30.34 in8.0 miNE (40°)8.1 mphClear
11:50 AM74.0 °F36.0 °F15 %29.95 in3.0 miWest (270°)2.2 mphHaze
12:40 PM77.0 °F30.2 °F18 %30.31 in8.0 miSE (140°)6.9 mphClear
1:48 PM78.8 °F24.8 °F14 %30.28 in8.0 miESE (120°)3.5 mphClear
2:40 PM78.8 °F24.8 °F14 %30.26 in10.0 miSW (220°)10.4 mphClear
2:40 PM80.0 °F34.0 °F10 %29.77 in6.0 miSE (140°)2.2 mphHaze
3:43 PM77.0 °F37.4 °F24 %30.26 in10.0 miSSW (200°)5.8 mphClear
4:54 PM75.2 °F37.4 °F25 %30.26 in10.0 miSSW (200°)9.2 mphClear
5:40 PM73.0 °F41.0 °F20 %29.69 in6.0 miSSW (200°)2.2 mphHaze
5:45 PM66.2 °F48.2 °F52 %30.27 in8.0 miSouth (190°)8.1 mphClear
6:43 PM62.6 °F50.0 °F63 %30.29 in8.0 miSSW (210°)9.2 mphClear
7:53 PM59.0 °F42.8 °F55 %30.32 in8.0 miSouth (190°)3.5 mphClear
8:44 PM53.6 °F42.8 °F67 %30.35 in8.0 miNNE (20°)2.3 mphClear
8:45 PM64.0 °F35.0 °F23 %29.71 in3.0 miESE (120°)2.2 mph
9:50 PM51.8 °F39.2 °F62 %30.36 in8.0 miNorth (10°)3.5 mphClear
10:45 PM50.0 °F41.0 °F71 %30.36 in8.0 miNW (320°)4.6 mphClear
11:45 PM56.0 °F46.0 °F60 %29.78 in3.0 miCalm
Hourly data recorded from MMPB, located miles away from Puebla - Jardines de San Manuel, Puebla







STORIES FROM OUR PARTNERS